Starlink 30381

operational
NORAD ID: 57785 Int'l Des: 2023-134 Owner: SPXS Country: US Constellation: starlink
LEOCIRCULAR

About Starlink 30381

Description loading...

Live Position

Loading 3D Globe...

Upcoming Passes

Altitude History

Altitude vs Time

uPlot chart will show altitude changes over time

Two-Line Element Set

1 57785U 23134Q 25354.10419650 .00000255 00000-0 33930-4 0 9994
2 57785 43.0036 269.5070 0001212 270.7736 89.2967 15.02535809127501
Epoch: Dec 20, 2025 • Age: 17 hours

Current Status

Altitude 569.6 km
Velocity 7.58 km/s
Sub-Earth Point -37.92°S, 119.16°E
Launch Date Sep 4, 2023
Age 2.2 years
Type internet

Technical Details

Classification Payload
Mass 730.00 kg
Dry Mass 700.00 kg
Total Mass 730.00 kg
Length 0.30 m
Diameter 4.10 m
Span 29.00 m
Shape Box + pan
Manufacturer SPXS
Bus Type Starlink V2M
Phase Status In Orbit
Owner/State SPXS/US

Large Constellations

Loading constellations...